Tracking 27382 objects as of 5-Jun-2023
HD Live streaming from Space Station
objects crossing your sky now

STARLINK-6039

Track STARLINK-6039 now!
10-day predictions
STARLINK-6039 is classified as:


NORAD ID: 56319
Int'l Code: 2023-058C
Perigee: 506.8 km
Apogee: 509.4 km
Inclination: 97.7 °
Period: 94.6 minutes
Semi major axis: 6879 km
RCS: Unknown
Launch date: April 27, 2023
Source: United States (US)
Launch site: AIR FORCE WESTERN TEST RANGE (AFWTR)
Your satellite tracking list
Your tracking list is empty




NASA's NSSDC Master Catalog

Two Line Element Set (TLE):
1 56319U 23058C   23155.58335648 -.00994956  00000-0 -47885-1 0  9997
2 56319  97.6543 156.6201 0001902  90.7746  46.3995 15.21607626  6228
Source of the keplerian elements: AFSPC